Location: Ellerstadt
(49.4644°N, 8.2615°E)
Time: 01:33:44
(UTC+00:00)

Meteor 2-20 Rocket - Pass Details

Date: 03 March 2021
Orbit: 941 x 958 km, 82.5° (Epoch: 16 April)

Event Time Altitude Azimuth Distance (km) Brightness Sun altitude
Rises 19:40:01 0° 351° (N) 3,623 7.9 -24.3°
Reaches altitude 10° 19:42:32 10° 354° (N) 2,676 7.1 -24.7°
Maximum altitude 19:48:38 67° 77° (ENE) 1,026 4.3 -25.6°
Enters shadow 19:49:09 64° 107° (ESE) 1,048 4.3 -25.7°
